Moab, UT

3:49 PM MDT on July 28, 2016 (GMT -0600)
Canyonlands

Weather History for KCNY - March, 2013

Change the Weather History Date:

Sunday, March 17, 2013

  Actual Average Record
Temperature  
Mean Temperature 52 °F 45 °F  
Max Temperature 64 °F 59 °F 80 °F (1974)
Min Temperature 40 °F 31 °F 20 °F (1951)
Degree Days  
Heating Degree Days 13 20  
Month to date heating degree days 313 382  
Since 1 July heating degree days 5243 4791  
Cooling Degree Days 0 0  
Month to date cooling degree days 0 0  
Year to date cooling degree days 0 0  
Growing Degree Days 2 (Base 50)    
Moisture  
Dew Point 16 °F    
Average Humidity 32    
Maximum Humidity 53    
Minimum Humidity 11    
Precipitation  
Precipitation 0.00 in 0.02 in 0.89 in (2003)
Month to date precipitation 0.06 0.43  
Year to date precipitation 0.69 1.59  
Sea Level Pressure  
Sea Level Pressure 29.71 in    
Wind  
Wind Speed 16 mph (WNW)    
Max Wind Speed 39 mph    
Max Gust Speed 47 mph    
Visibility 10 miles    
Events      
T = Trace of Precipitation, MM = Missing Value Source: NWS Daily Summary

Daily Weather History Graph

Daily Weather History Graph

Search for Another Location

Airport or City:

Trip Planner

Search our weather history database for the weather conditions in past years. The results will help you decide how hot, cold, wet, or windy it might be!

Date:

Astronomy

Mar. 17, 2013 Rise Set
Actual Time 7:26 AM MDT 7:28 PM MDT
Civil Twilight 7:00 AM MDT 7:54 PM MDT
Nautical Twilight 6:29 AM MDT 8:25 PM MDT
Astronomical Twilight 5:58 AM MDT 8:57 PM MDT
Moon 10:45 AM MDT (3/17) 12:36 AM MDT (3/17)
Length of Visible Light 12h 54m
Length of Day
12h 01m
Waxing Crescent, 32% of the Moon is Illuminated
Mar 17
Waxing Crescent
Mar 19
First Quarter
Mar 27
Full
Apr 2
Last Quarter
Apr 10
New

Hourly Weather History & Observations

Time (MDT) Temp. Windchill Dew Point Humidity Pressure Visibility Wind Dir Wind Speed Gust Speed Precip Events Conditions
12:53 AM 48.0 °F - 18.0 °F 30% 29.71 in 10.0 mi Variable 3.5 mph - N/A   Clear
1:53 AM 42.1 °F 40.2 °F 17.1 °F 37% 29.69 in 10.0 mi ENE 3.5 mph - N/A   Clear
2:53 AM 46.0 °F - 21.9 °F 39% 29.66 in 10.0 mi Calm Calm - N/A   Clear
3:53 AM 44.1 °F 40.8 °F 21.9 °F 42% 29.65 in 10.0 mi WNW 5.8 mph - N/A   Mostly Cloudy
4:53 AM 45.0 °F 38.5 °F 26.1 °F 48% 29.65 in 10.0 mi WNW 13.8 mph - N/A   Overcast
5:53 AM 48.0 °F - 28.0 °F 46% 29.65 in 10.0 mi ESE 4.6 mph - N/A   Mostly Cloudy
6:53 AM 46.0 °F 41.9 °F 28.0 °F 50% 29.70 in 10.0 mi North 8.1 mph - N/A   Overcast
7:53 AM 45.0 °F 43.5 °F 28.0 °F 52% 29.71 in 10.0 mi Variable 3.5 mph - N/A   Scattered Clouds
8:53 AM 52.0 °F - 24.1 °F 34% 29.70 in 10.0 mi West 9.2 mph - N/A   Clear
9:53 AM 54.0 °F - 24.1 °F 31% 29.72 in 10.0 mi West 8.1 mph - N/A   Clear
10:53 AM 57.9 °F - 19.0 °F 22% 29.70 in 10.0 mi WNW 19.6 mph 26.5 mph N/A   Clear
11:53 AM 57.9 °F - 17.1 °F 20% 29.70 in 10.0 mi WNW 20.7 mph 31.1 mph N/A   Partly Cloudy
12:53 PM 63.0 °F - 10.0 °F 13% 29.68 in 10.0 mi West 27.6 mph 35.7 mph N/A   Clear
1:53 PM 63.0 °F - 10.0 °F 13% 29.68 in 10.0 mi WNW 26.5 mph 33.4 mph N/A   Clear
2:53 PM 63.0 °F - 7.0 °F 11% 29.66 in 10.0 mi WNW 27.6 mph 39.1 mph N/A   Clear
3:53 PM 62.1 °F - 6.1 °F 11% 29.67 in 10.0 mi WNW 31.1 mph 39.1 mph N/A   Clear
4:53 PM 62.1 °F - 6.1 °F 11% 29.68 in 10.0 mi WNW 31.1 mph 39.1 mph N/A   Clear
5:53 PM 57.9 °F - 6.1 °F 13% 29.71 in 10.0 mi NW 27.6 mph 35.7 mph N/A   Partly Cloudy
6:53 PM 55.0 °F - 10.0 °F 17% 29.75 in 10.0 mi WNW 21.9 mph 33.4 mph N/A   Clear
7:53 PM 51.1 °F - 10.9 °F 20% 29.79 in 10.0 mi NW 13.8 mph - N/A   Clear
8:53 PM 50.0 °F - 10.9 °F 21% 29.79 in 10.0 mi WNW 16.1 mph - N/A   Clear
9:53 PM 48.0 °F - 10.0 °F 22% 29.81 in 10.0 mi WNW 15.0 mph - N/A   Clear
10:53 PM 46.9 °F - 12.0 °F 24% 29.81 in 10.0 mi WNW 13.8 mph - N/A   Clear
11:53 PM 43.0 °F 36.0 °F 12.0 °F 28% 29.83 in 10.0 mi West 13.8 mph - N/A   Clear